This is the latest recevied weather packets stored in our database for station/object VK4TOM-13. If no packets are shown the sender has not sent any weather packets the latest 10 day(s).
| Time | Temp. | Humidity | Pressure | Rain* | Wind** | Luminosity | Snow |
|---|---|---|---|---|---|---|---|
| 1788253525 | 20° C | 70% | 1024.2 hPa | 0 mm | - | - | - |
| 1788252906 | 20° C | 70% | 1024 hPa | 0 mm | - | - | - |
| 1788252305 | 20° C | 70% | 1023.9 hPa | 0 mm | - | - | - |
| 1788251724 | 20° C | 70% | 1023.7 hPa | 0 mm | - | - | - |
| 1788251103 | 20° C | 70% | 1023.6 hPa | 0 mm | - | - | - |
| 1788250502 | 20.56° C | 70% | 1023.6 hPa | 0 mm | - | - | - |
| 1788249901 | 20.56° C | 70% | 1023.5 hPa | 0 mm | - | - | - |
| 1788249300 | 20.56° C | 70% | 1023.4 hPa | 0 mm | - | - | - |
| 1788248699 | 21.11° C | 70% | 1023.5 hPa | 0 mm | - | - | - |
| 1788248098 | 21.11° C | 70% | 1023.3 hPa | 0 mm | - | - | - |
| 1788247497 | 21.67° C | 70% | 1023.3 hPa | 0 mm | - | - | - |
| 1788246896 | 21.67° C | 70% | 1023.1 hPa | 0 mm | - | - | - |
| 1788246295 | 22.22° C | 70% | 1023.1 hPa | 0 mm | - | - | - |
| 1788245693 | 22.78° C | 70% | 1022.9 hPa | 0 mm | - | - | - |
| 1788245092 | 22.78° C | 70% | 1023 hPa | 0 mm | - | - | - |
| 1788244491 | 23.89° C | 70% | 1023 hPa | 0 mm | - | - | - |
| 1788243890 | 24.44° C | 70% | 1022.9 hPa | 0 mm | - | - | - |
| 1788243300 | 25° C | 70% | 1022.8 hPa | 0 mm | - | - | - |
| 1788242688 | 26.11° C | 65% | 1022.6 hPa | 0 mm | - | - | - |
| 1788242087 | 26.67° C | 70% | 1022.7 hPa | 0 mm | - | - | - |
| 1788241486 | 26.67° C | 68% | 1022.8 hPa | 0 mm | - | - | - |
| 1788240885 | 26.67° C | 61% | 1022.8 hPa | 0 mm | - | - | - |
| 1788240676 | 26.67° C | 60% | 1022.8 hPa | 0 mm | - | - | - |
| 1788240459 | 26.67° C | 60% | 1022.8 hPa | 0 mm | - | - | - |
| 1788240255 | 27.22° C | 58% | 1022.8 hPa | 0 mm | - | - | - |
* Rain since midnight (hover to see other rain measurements)
** Current wind speed in m/s (hover to see current wind gust speed)